Temperature
-4 -4 -4 -4 -4 -5 -4 -4 -3 -3 -3 -3 -3 -4 -4 -3 -3 -3 -4 -3 -4 -4 -3 -3 -3 -3 -3 -3 -3 -3 -3 -3 -2 -2 -3 -3 -3 -2 -2 -2 -2 -2 -2 -2
-4 -4 -4 -4 -4 -5 -5 -4 -5 -4 -4 -4 -4 -4 -4 -4 -4 -4 -4 -4 -4 -4 -4 -4 -4 -4 -4 -4 -4 -3 -3 -3 -3 -3 -3 -3 -3 -3 -3 -3 -3 -3 -3 -3
-4 -5 -4 -4 -4 -5 -5 -6 -5 -4 -3 -5 -5 -5 -5 -5 -5 -4 -4 -4 -4 -4 -4 -4 -4 -4 -4 -4 -4 -4 -4 -4 -4 -4 -4 -4 -4 -4 -4 -4 -4 -4 -4 -3
-5 -5 -3 -2 -5 -5 -5 -6 -7 -6 -6 -6 -6 -5 -4 -4 -4 -4 -4 -4 -4 -4 -4 -4 -5 -5 -5 -5 -5 -5 -5 -5 -5 -5 -5 -5 -4 -4 -4 -5 -4 -4 -4 -4
-6 -5 -5 -4 -6 -7 -6 -5 -7 -7 -7 -6 -6 -6 -5 -4 -4 -4 -4 -4 -4 -5 -5 -5 -5 -5 -5 -5 -5 -5 -5 -5 -5 -5 -5 -5 -5 -5 -5 -5 -5 -5 -5 -5
-6 -5 -4 -3 -6 -7 -6 -5 -6 -7 -7 -7 -7 -6 -5 -4 -4 -5 -5 -5 -5 -5 -5 -6 -6 -6 -6 -6 -6 -6 -6 -6 -6 -6 -6 -6 -6 -6 -6 -6 -6 -6 -6 -6
-7 -6 -5 -6 -7 -6 -4 -4 -6 -6 -6 -7 -8 -6 -5 -5 -5 -5 -5 -5 -5 -6 -6 -6 -6 -6 -6 -6 -7 -7 -7 -7 -7 -7 -7 -7 -7 -7 -7 -7 -7 -7 -7 -7
-8 -7 -5 -7 -8 -7 -6 -5 -6 -6 -6 -6 -6 -6 -6 -6 -6 -6 -6 -6 -6 -6 -6 -7 -7 -7 -7 -7 -7 -7 -7 -7 -7 -7 -7 -7 -7 -7 -7 -7 -7 -7 -7 -7
-7 -6 -6 -7 -6 -6 -6 -6 -6 -6 -6 -6 -7 -7 -6 -6 -6 -6 -6 -6 -7 -7 -7 -7 -8 -8 -8 -8 -8 -8 -8 -8 -8 -8 -8 -8 -8 -8 -8 -8 -8 -8 -8 -8
-9 -8 -8 -7 -6 -6 -6 -6 -6 -6 -6 -7 -7 -7 -7 -7 -7 -7 -7 -7 -7 -8 -8 -8 -8 -8 -8 -9 -9 -9 -8 -8 -9 -8 -8 -8 -9 -9 -9 -9 -9 -9 -9 -9
-10 -10 -9 -7 -7 -6 -7 -7 -7 -7 -7 -7 -7 -7 -7 -8 -8 -8 -8 -8 -8 -8 -8 -8 -9 -9 -9 -9 -9 -9 -9 -9 -9 -9 -9 -9 -9 -9 -9 -9 -10 -10 -10 -10
-8 -8 -9 -7 -6 -7 -7 -7 -7 -8 -8 -8 -8 -8 -8 -8 -8 -8 -9 -9 -9 -9 -9 -9 -9 -9 -10 -10 -10 -10 -10 -10 -10 -10 -10 -10 -10 -10 -10 -10 -10 -10 -10 -10
-8 -8 -8 -8 -8 -8 -8 -8 -8 -8 -8 -8 -8 -9 -9 -9 -9 -9 -9 -9 -9 -9 -10 -10 -10 -10 -10 -10 -10 -10 -10 -10 -10 -11 -11 -11 -11 -11 -11 -10 -10 -10 -10 -10
-9 -9 -9 -9 -9 -9 -9 -9 -9 -9 -9 -9 -9 -9 -9 -10 -10 -10 -10 -10 -10 -10 -10 -10 -10 -10 -11 -11 -11 -11 -11 -11 -11 -11 -11 -11 -11 -11 -11 -11 -11 -11 -11 -11
-9 -9 -9 -9 -9 -9 -10 -9 -9 -9 -9 -9 -10 -10 -10 -10 -10 -10 -10 -11 -11 -11 -11 -11 -11 -11 -11 -11 -11 -12 -12 -12 -12 -12 -12 -12 -12 -12 -12 -12 -12 -12 -11 -11
-10 -10 -10 -10 -10 -10 -10 -10 -10 -10 -10 -10 -10 -10 -11 -11 -11 -11 -11 -11 -11 -11 -11 -11 -11 -12 -12 -12 -12 -12 -12 -12 -12 -12 -12 -13 -13 -12 -12 -12 -12 -12 -12 -12
-11 -11 -11 -11 -10 -10 -10 -11 -11 -11 -11 -11 -11 -11 -11 -11 -11 -11 -11 -12 -12 -12 -12 -12 -12 -12 -12 -12 -12 -12 -13 -13 -13 -13 -13 -13 -13 -13 -13 -13 -13 -13 -13 -13
-10 -10 -10 -11 -11 -11 -11 -11 -11 -11 -11 -11 -12 -12 -12 -11 -12 -12 -12 -12 -12 -12 -12 -12 -13 -13 -13 -13 -13 -13 -13 -13 -13 -13 -13 -13 -13 -14 -14 -13 -13 -13 -13 -13
-11 -11 -11 -11 -11 -11 -11 -11 -12 -12 -12 -12 -12 -12 -12 -12 -12 -12 -12 -13 -13 -13 -13 -13 -13 -13 -13 -13 -13 -13 -13 -14 -14 -14 -14 -14 -14 -14 -14 -14 -14 -14 -14 -14
-11 -11 -11 -12 -12 -12 -12 -12 -12 -12 -12 -12 -12 -12 -12 -12 -13 -13 -13 -13 -13 -13 -13 -13 -14 -14 -14 -14 -14 -14 -14 -14 -14 -14 -14 -14 -14 -14 -14 -14 -14 -14 -14 -14
-12 -12 -12 -12 -12 -12 -12 -12 -12 -13 -13 -13 -13 -13 -13 -13 -13 -13 -14 -14 -14 -14 -14 -14 -14 -14 -14 -14 -14 -14 -14 -14 -14 -14 -14 -14 -14 -14 -15 -14 -14 -15 -15 -15
-12 -13 -13 -13 -13 -13 -13 -13 -13 -13 -13 -13 -13 -13 -14 -14 -14 -14 -14 -14 -14 -14 -14 -14 -14 -14 -15 -15 -15 -15 -15 -15 -15 -15 -15 -15 -15 -15 -15 -15 -15 -15 -15 -15
-13 -13 -13 -13 -13 -13 -13 -13 -13 -14 -14 -14 -14 -14 -14 -14 -14 -14 -14 -15 -15 -15 -15 -15 -15 -15 -15 -15 -15 -15 -15 -15 -15 -15 -15 -15 -15 -15 -15 -15 -15 -15 -15 -15
-14 -14 -14 -14 -14 -14 -14 -14 -14 -14 -14 -14 -14 -15 -15 -15 -15 -15 -15 -15 -15 -15 -15 -15 -15 -16 -15 -15 -15 -15 -15 -15 -15 -15 -15 -15 -16 -16 -16 -16 -16 -16 -16 -16
-14 -14 -14 -14 -14 -14 -14 -15 -15 -15 -15 -15 -15 -15 -15 -15 -15 -15 -15 -15 -15 -15 -15 -16 -16 -16 -16 -16 -16 -16 -16 -16 -16 -16 -16 -16 -16 -16 -16 -16 -16 -16 -16 -16
-14 -14 -15 -15 -15 -15 -15 -15 -15 -15 -15 -15 -15 -15 -15 -16 -16 -16 -16 -16 -16 -16 -16 -16 -16 -16 -16 -16 -16 -16 -16 -16 -16 -16 -16 -16 -16 -16 -16 -16 -16 -16 -16 -16
-15 -15 -15 -15 -15 -16 -16 -16 -16 -16 -16 -16 -16 -16 -16 -16 -16 -16 -16 -16 -16 -16 -16 -16 -16 -17 -17 -17 -17 -17 -17 -16 -16 -16 -16 -16 -16 -16 -16 -16 -16 -16 -16 -16
Wind_Speed
5 4 3 5 6 6 9 8 9 8 9 10 7 6 5 4 4 3 3 3 2 2 2 2 2 2 2 2 2 1 1 1 2 2 2 2 2 2 2 2 2 2 2 3
3 3 3 5 8 9 9 8 9 9 11 8 6 4 4 4 3 3 3 3 3 3 3 3 3 2 2 2 2 1 1 2 2 2 2 2 2 2 2 2 2 2 2 2
4 4 4 8 9 9 6 7 8 11 11 4 4 5 5 4 3 4 4 4 4 4 3 3 3 2 2 2 2 1 1 2 2 2 2 2 2 2 2 2 2 2 2 2
1 3 7 7 1 6 7 7 8 7 6 4 5 6 4 3 4 5 4 4 4 4 4 3 2 2 1 1 1 1 1 2 2 2 2 2 2 2 2 2 2 2 3 3
2 3 8 7 3 3 5 7 6 9 8 5 3 3 4 2 3 4 4 4 4 3 3 2 2 1 0 1 1 1 2 2 2 2 2 2 2 3 2 2 2 2 2 2
3 3 7 6 1 1 2 6 3 4 6 4 1 2 5 2 2 4 3 3 2 2 1 1 2 0 0 1 1 2 3 3 3 2 2 2 3 3 2 2 2 2 3 2
5 6 8 5 1 3 3 5 2 3 4 3 5 6 4 4 4 3 3 3 2 1 1 2 1 1 1 1 2 3 2 2 2 2 2 3 2 2 2 2 2 2 3 3
5 5 8 2 5 6 5 2 1 2 3 4 5 5 4 4 4 3 3 3 2 1 2 2 1 1 1 2 3 2 1 2 2 2 2 2 1 2 2 1 1 2 2 3
8 7 3 4 5 3 1 2 3 3 3 3 4 4 5 4 4 3 3 3 2 1 2 2 2 1 2 3 2 1 1 2 2 2 2 2 2 2 2 1 1 2 2 2
5 7 5 4 4 4 3 4 4 3 3 3 4 5 5 4 4 4 3 3 2 1 2 3 2 2 2 2 1 1 1 2 2 2 2 2 2 2 2 2 2 2 2 2
6 7 6 5 4 5 5 4 4 4 4 4 5 5 5 5 4 4 4 3 2 2 3 3 2 2 2 2 1 1 1 2 2 2 2 2 2 2 3 3 3 3 2 3
7 5 4 6 4 3 4 5 5 4 4 3 4 5 5 4 4 3 3 3 2 2 3 3 2 2 2 2 1 1 2 2 2 2 2 2 2 3 5 4 6 6 6 5
5 3 4 5 4 2 3 4 4 4 5 5 3 3 4 4 3 3 3 3 3 3 2 2 2 2 3 2 1 2 2 2 2 2 2 2 2 2 3 4 5 5 6 7
3 2 3 3 4 4 3 4 3 3 3 3 3 2 2 3 3 3 3 3 2 2 2 2 2 3 3 2 1 2 2 3 3 2 2 2 2 3 3 3 4 3 5 7
3 3 4 4 3 3 3 2 3 3 3 3 2 2 2 3 3 4 3 2 1 1 2 2 2 3 2 2 2 2 2 2 2 2 2 2 2 2 2 3 3 3 4 5
3 2 2 3 4 4 3 3 3 5 4 3 3 3 3 3 3 3 3 1 1 2 3 2 3 3 2 2 2 2 2 4 3 2 2 2 2 2 3 3 3 3 3 4
1 2 3 4 4 4 4 4 4 5 4 4 4 4 3 2 3 3 3 2 2 3 3 3 3 3 2 2 2 2 2 2 4 3 2 2 2 3 3 3 3 3 4 5
4 4 4 4 4 4 5 4 4 4 4 4 3 2 2 2 3 4 3 3 2 3 3 3 3 3 2 2 2 2 2 2 2 2 3 3 3 3 3 3 3 4 4 4
2 3 3 3 3 3 4 4 4 3 3 3 2 3 3 3 3 3 2 2 2 4 4 4 5 3 3 4 3 2 2 3 3 3 3 4 4 3 3 3 4 4 4 4
2 2 2 2 2 2 3 3 3 3 3 2 2 2 2 3 2 2 2 2 3 4 4 4 4 3 3 3 4 2 2 3 3 3 3 3 3 3 3 4 4 4 4 4
2 2 2 2 3 3 3 2 2 2 3 2 1 2 3 3 2 2 2 3 4 4 4 5 3 3 3 3 3 2 2 2 2 3 3 3 3 4 4 4 4 4 4 4
2 1 2 2 3 3 3 2 2 2 2 2 2 2 2 3 3 2 2 3 4 6 4 3 3 5 6 4 1 1 2 2 3 3 3 3 4 4 4 4 4 5 4 4
1 1 2 2 2 3 3 3 2 2 2 2 2 2 2 2 2 2 4 3 3 6 4 3 6 8 8 3 1 1 2 3 3 3 4 4 4 4 4 5 5 5 5 5
1 1 2 2 2 2 3 4 3 2 2 2 2 2 2 2 2 2 3 6 7 7 4 6 9 9 7 3 2 2 3 3 4 4 4 4 4 4 4 5 5 5 5 6
1 1 1 2 2 2 3 4 4 3 3 3 3 3 2 1 2 3 3 4 6 7 4 6 9 9 5 3 3 3 3 4 4 4 3 4 4 4 5 5 5 5 5 5
1 1 1 1 1 2 2 2 2 3 3 3 3 3 2 2 2 2 3 3 4 6 5 4 4 6 4 4 4 4 4 5 5 4 4 4 5 5 5 5 6 6 5 6
1 1 1 2 2 2 2 2 2 3 3 3 4 3 3 3 3 3 3 3 4 4 4 4 4 4 4 4 4 4 4 4 4 4 4 5 5 5 6 6 6 6 6 6
Wind_Direction
252 267 224 227 230 202 205 214 220 243 247 265 275 276 286 292 304 315 326 327 315 308 303 310 314 315 314 308 315 327 341 332 318 319 323 330 333 328 322 316 309 302 300 300
280 282 260 267 252 227 226 232 240 261 269 262 279 289 297 295 292 293 300 305 313 316 313 304 301 301 304 299 306 332 329 314 323 335 340 337 333 332 328 323 316 306 296 293
271 305 324 273 237 211 214 214 204 234 252 283 291 286 278 277 274 272 286 293 296 293 288 290 286 281 270 279 303 322 317 320 330 333 330 325 327 337 331 323 315 308 297 286
279 4 253 250 219 197 216 241 221 239 265 272 265 278 271 252 244 271 288 292 289 286 290 291 285 287 282 292 300 314 317 317 321 325 318 317 322 322 319 313 304 302 297 286
178 251 275 287 252 179 198 266 229 233 259 277 307 323 294 243 227 249 261 269 272 270 274 282 281 282 308 329 331 326 311 309 307 302 304 307 307 307 309 312 312 304 296 296
172 217 250 263 274 195 128 283 264 214 247 259 96 291 279 298 298 291 291 287 286 288 296 279 278 237 172 282 297 289 291 295 299 296 287 286 287 295 301 298 297 300 301 299
203 231 262 265 244 128 174 259 290 219 235 203 206 231 277 318 314 307 304 308 309 300 289 272 261 182 222 264 270 282 295 302 302 298 287 279 285 290 291 297 308 307 300 300
180 213 255 207 139 186 229 293 273 255 240 229 243 273 297 306 307 316 320 320 320 315 309 303 260 193 249 272 281 298 304 304 304 306 301 301 293 296 297 288 301 305 304 304
199 217 252 176 205 240 277 274 276 267 267 250 258 274 291 296 296 298 296 297 297 284 302 306 285 223 242 278 292 309 313 307 306 311 310 305 298 296 300 286 278 290 297 302
250 263 261 249 270 291 280 266 278 272 271 252 254 270 276 283 287 286 285 282 279 273 282 295 299 295 258 277 296 298 300 304 305 313 315 315 302 289 284 275 273 279 283 289
258 281 304 279 260 277 286 290 293 292 275 258 255 267 266 274 277 275 281 278 264 253 262 276 290 295 292 290 269 280 292 293 302 305 300 307 307 289 283 263 255 262 263 266
241 251 235 268 287 289 284 284 281 283 290 280 250 260 269 273 273 273 277 276 273 265 269 279 287 292 295 285 239 232 283 291 290 293 296 301 309 318 312 299 299 297 292 288
248 278 258 279 295 289 279 283 284 271 268 279 279 260 264 275 279 278 281 278 267 261 266 274 282 288 296 293 275 248 253 273 279 289 293 295 296 302 313 325 322 316 312 309
263 290 286 282 281 289 286 295 297 294 287 276 279 283 273 279 289 285 279 278 275 267 266 266 275 288 297 296 285 274 268 279 286 276 279 278 280 286 290 300 314 319 319 318
265 249 256 280 297 304 306 315 318 310 309 307 300 296 288 284 285 284 286 293 301 288 275 266 275 288 303 297 289 275 274 270 270 274 276 275 280 286 287 289 294 304 315 321
279 277 265 276 288 301 312 307 297 294 298 300 301 296 290 284 288 297 302 296 272 281 285 285 284 287 296 293 289 284 274 284 296 290 285 285 285 285 286 288 293 298 304 309
233 271 274 288 289 293 287 276 273 281 288 289 288 292 300 306 310 310 314 315 292 286 288 285 287 296 295 282 270 271 274 279 296 299 287 282 283 281 282 284 287 292 293 295
230 242 244 252 263 278 290 290 284 282 279 281 290 293 291 286 287 296 308 324 332 322 308 298 291 297 293 285 276 268 271 271 272 273 278 276 279 280 282 280 281 285 293 301
266 265 269 269 263 264 277 286 289 283 282 284 285 284 282 281 281 292 311 320 310 305 308 306 313 325 304 288 297 271 270 273 277 280 280 282 292 286 280 277 279 282 287 292
310 303 301 309 311 294 288 294 298 296 292 285 278 283 297 298 298 300 304 296 283 274 286 299 307 303 295 286 297 275 263 263 265 272 276 276 280 283 282 280 280 283 285 286
308 314 323 326 327 327 316 305 304 301 303 297 267 270 286 299 304 298 296 305 306 296 297 307 318 302 292 287 290 269 262 266 268 270 274 276 280 282 283 283 282 283 282 285
311 320 325 331 334 331 333 332 321 310 314 317 309 299 305 311 315 310 290 274 293 312 326 315 305 299 306 307 294 266 261 261 266 268 269 270 271 274 278 279 279 281 281 281
315 319 327 332 327 325 338 343 334 325 318 312 308 304 298 294 297 299 305 305 303 315 327 307 305 312 320 335 328 281 268 269 271 271 270 270 269 269 272 276 277 277 277 278
336 346 345 347 359 1 347 337 337 336 328 316 309 302 300 309 313 289 280 311 326 325 325 316 322 323 333 347 325 301 289 283 278 275 274 274 274 274 274 274 276 275 273 274
3 4 5 7 2 341 330 332 339 343 344 339 332 325 315 291 280 301 313 316 322 330 328 323 326 331 342 330 315 302 294 285 284 283 276 278 278 277 276 274 273 275 275 273
3 344 330 321 315 320 327 332 332 330 334 335 332 330 330 324 312 312 317 318 314 325 329 323 321 323 323 316 308 302 298 297 300 297 288 282 280 280 279 278 275 274 273 272
13 358 352 349 344 341 334 326 320 319 319 312 313 318 322 325 325 325 322 322 323 322 317 315 314 313 312 309 306 302 299 296 294 292 289 285 283 281 278 275 273 272 272 272
Height
1502 1501 1501 1500 1500 1502 1502 1498 1496 1489 1488 1480 1478 1478 1476 1475 1474 1473 1471 1470 1470 1469 1469 1469 1469 1469 1469 1469 1470 1470 1471 1471 1471 1471 1471 1471 1471 1471 1471 1471 1471 1472 1472 1473
1502 1500 1500 1498 1495 1496 1496 1495 1493 1489 1484 1476 1476 1475 1474 1473 1472 1471 1470 1469 1468 1468 1467 1467 1466 1466 1467 1467 1467 1468 1468 1468 1468 1468 1468 1468 1468 1467 1467 1467 1467 1467 1467 1468
1500 1502 1497 1494 1487 1488 1490 1487 1486 1484 1476 1474 1474 1473 1472 1470 1470 1469 1468 1467 1467 1466 1465 1465 1464 1464 1464 1464 1465 1465 1465 1465 1465 1465 1465 1464 1464 1464 1463 1463 1463 1463 1463 1463
1504 1502 1496 1479 1479 1479 1480 1479 1479 1476 1473 1473 1472 1470 1469 1469 1468 1467 1466 1466 1465 1464 1463 1463 1462 1462 1462 1462 1462 1462 1462 1462 1462 1462 1461 1461 1460 1460 1460 1459 1459 1459 1458 1458
1505 1503 1492 1480 1478 1480 1480 1476 1473 1473 1471 1470 1470 1469 1467 1466 1466 1465 1465 1464 1463 1462 1461 1460 1460 1459 1459 1459 1459 1459 1459 1459 1459 1458 1458 1457 1457 1457 1456 1456 1455 1455 1455 1454
1504 1499 1490 1476 1477 1476 1478 1475 1468 1469 1468 1469 1470 1471 1466 1464 1463 1463 1462 1462 1460 1459 1458 1458 1457 1456 1456 1455 1455 1455 1456 1456 1455 1455 1454 1454 1453 1453 1453 1452 1452 1451 1451 1451
1502 1499 1485 1477 1476 1476 1480 1472 1468 1466 1466 1466 1467 1466 1464 1462 1461 1461 1460 1459 1458 1457 1456 1455 1454 1454 1453 1453 1452 1453 1452 1452 1452 1452 1451 1450 1450 1450 1449 1449 1448 1448 1447 1447
1499 1497 1484 1474 1475 1476 1471 1467 1465 1464 1464 1464 1463 1462 1461 1460 1459 1458 1457 1456 1455 1454 1453 1453 1452 1451 1450 1450 1450 1450 1449 1449 1449 1448 1448 1447 1447 1446 1446 1445 1444 1444 1443 1443
1484 1478 1471 1470 1468 1467 1467 1465 1464 1463 1462 1462 1460 1459 1459 1457 1456 1455 1455 1454 1453 1451 1450 1450 1449 1448 1447 1447 1447 1446 1446 1446 1445 1445 1445 1444 1443 1443 1442 1442 1441 1440 1440 1440
1479 1470 1467 1467 1466 1465 1464 1463 1462 1461 1460 1459 1458 1457 1456 1455 1454 1453 1452 1451 1450 1449 1447 1447 1447 1446 1445 1445 1444 1444 1443 1443 1442 1442 1441 1441 1440 1440 1439 1439 1438 1437 1437 1437
1474 1468 1464 1462 1461 1461 1461 1460 1459 1458 1457 1456 1455 1454 1453 1452 1451 1449 1448 1447 1447 1446 1445 1444 1444 1443 1443 1442 1441 1441 1440 1440 1440 1439 1438 1438 1437 1437 1436 1436 1436 1435 1435 1434
1467 1463 1463 1460 1458 1458 1458 1456 1455 1454 1453 1453 1452 1451 1449 1448 1447 1446 1445 1444 1443 1442 1442 1441 1441 1440 1440 1439 1439 1438 1437 1437 1437 1436 1435 1435 1434 1434 1433 1433 1433 1433 1432 1432
1461 1460 1459 1458 1457 1456 1455 1454 1452 1451 1450 1449 1448 1447 1446 1445 1444 1443 1442 1441 1440 1439 1439 1438 1438 1437 1437 1437 1436 1435 1435 1434 1434 1433 1432 1432 1431 1430 1429 1430 1430 1429 1429 1429
1458 1458 1456 1455 1454 1453 1452 1451 1450 1448 1447 1446 1445 1444 1443 1442 1440 1439 1439 1438 1437 1436 1436 1436 1435 1435 1434 1434 1433 1433 1432 1432 1431 1430 1429 1429 1428 1428 1427 1426 1425 1425 1426 1425
1455 1455 1454 1453 1452 1450 1449 1448 1447 1445 1444 1443 1442 1441 1440 1439 1437 1436 1436 1435 1434 1434 1433 1433 1432 1432 1431 1431 1430 1430 1429 1429 1428 1427 1427 1426 1425 1425 1424 1423 1423 1422 1421 1421
1452 1451 1451 1450 1448 1447 1446 1445 1444 1442 1441 1440 1439 1438 1437 1436 1435 1434 1433 1432 1431 1430 1430 1429 1429 1429 1428 1428 1427 1427 1426 1426 1425 1424 1423 1423 1422 1422 1421 1420 1419 1419 1418 1417
1449 1447 1447 1446 1445 1444 1443 1442 1441 1440 1439 1437 1436 1435 1434 1433 1432 1431 1430 1429 1428 1428 1427 1426 1426 1426 1425 1424 1424 1423 1423 1422 1422 1421 1420 1420 1419 1419 1418 1417 1416 1415 1415 1414
1446 1446 1445 1444 1443 1442 1441 1440 1438 1437 1436 1435 1434 1433 1432 1431 1429 1428 1427 1426 1425 1425 1424 1423 1423 1422 1422 1421 1421 1420 1420 1419 1418 1418 1417 1417 1416 1415 1415 1414 1413 1412 1411 1411
1443 1443 1442 1441 1440 1439 1438 1437 1436 1435 1433 1432 1431 1430 1429 1428 1427 1426 1425 1424 1422 1421 1421 1420 1420 1419 1419 1418 1418 1417 1417 1416 1415 1415 1414 1413 1413 1412 1411 1410 1409 1409 1408 1407
1440 1440 1439 1438 1437 1437 1435 1434 1433 1432 1431 1430 1428 1427 1426 1426 1425 1423 1422 1421 1420 1419 1418 1417 1417 1416 1415 1415 1415 1414 1413 1413 1412 1411 1410 1409 1409 1408 1407 1406 1406 1405 1404 1403
1438 1437 1436 1435 1435 1434 1433 1432 1431 1430 1429 1427 1426 1425 1424 1423 1422 1421 1419 1418 1418 1417 1416 1415 1414 1413 1412 1412 1411 1411 1410 1409 1408 1408 1407 1406 1405 1404 1403 1402 1402 1401 1400 1399
1436 1435 1434 1433 1432 1431 1431 1430 1429 1428 1427 1425 1424 1423 1422 1421 1420 1419 1418 1417 1416 1414 1413 1412 1411 1410 1410 1409 1408 1407 1407 1406 1405 1404 1403 1402 1401 1400 1399 1398 1398 1397 1396 1395
1434 1433 1432 1431 1430 1429 1429 1428 1427 1426 1425 1423 1422 1421 1420 1419 1418 1417 1415 1415 1413 1412 1411 1409 1408 1408 1407 1406 1405 1404 1403 1402 1401 1401 1400 1399 1398 1397 1396 1395 1394 1393 1392 1391
1432 1431 1430 1430 1429 1428 1427 1426 1425 1424 1423 1422 1421 1420 1419 1417 1416 1415 1414 1413 1411 1410 1408 1407 1406 1405 1404 1403 1402 1401 1400 1399 1398 1397 1396 1395 1394 1393 1392 1391 1390 1389 1388 1387
1431 1430 1429 1428 1427 1426 1426 1425 1423 1422 1421 1420 1419 1418 1417 1416 1415 1413 1412 1410 1409 1407 1406 1405 1403 1402 1401 1399 1398 1397 1396 1395 1394 1393 1392 1391 1390 1389 1388 1387 1386 1384 1383 1382
1429 1428 1428 1427 1426 1425 1424 1423 1422 1421 1420 1418 1417 1417 1416 1414 1413 1411 1410 1408 1407 1405 1404 1402 1400 1399 1398 1396 1395 1394 1393 1392 1391 1390 1389 1388 1386 1385 1384 1383 1382 1380 1379 1378
1428 1427 1426 1426 1425 1424 1423 1422 1421 1420 1418 1417 1416 1415 1414 1412 1411 1409 1408 1406 1404 1403 1401 1399 1398 1396 1395 1393 1392 1391 1389 1388 1387 1386 1385 1384 1382 1381 1380 1379 1378 1376 1375 1374